Theta_e
340 339 339 339 340 339 338 337 336 335 335 336 336 336 335 336 334 334 335 334 335 335 333 332 328 327 328 328 328 326 326 325 323 324 324 325 325 325 323 323 324 323
339 339 339 340 340 340 339 338 337 336 336 337 337 337 336 334 332 333 332 333 333 333 329 328 327 328 327 325 325 325 323 322 321 318 321 323 324 324 323 323 323 323
340 339 339 339 339 339 339 339 339 338 337 337 338 336 334 332 331 332 332 332 331 330 327 329 327 327 326 324 324 324 323 321 319 317 321 322 323 322 323 322 321 320
339 338 338 339 340 339 339 338 338 337 337 335 335 334 332 331 331 331 331 330 330 328 328 327 326 325 324 323 323 322 320 320 320 319 320 320 320 320 320 319 318 317
338 338 338 338 339 340 339 338 337 336 335 335 335 332 330 330 330 329 329 329 329 328 327 325 325 324 323 322 322 320 319 320 318 318 318 317 317 317 316 316 316 315
338 338 338 338 338 338 337 337 337 337 335 334 333 331 330 329 329 328 328 327 327 326 325 324 323 322 323 323 322 321 319 318 317 317 316 316 314 313 312 314 313 312
337 338 338 338 338 337 337 337 336 335 334 334 331 330 330 328 328 328 327 327 326 325 324 323 322 322 322 322 321 320 318 317 316 315 314 314 313 312 311 313 313 311
337 338 338 338 337 336 336 336 335 334 334 332 330 330 329 328 328 328 327 326 325 324 323 322 322 321 320 320 319 317 317 315 315 314 313 313 312 311 311 312 313 310
337 337 337 337 336 335 335 335 334 334 332 330 330 329 328 328 327 326 326 325 324 323 322 321 321 320 320 319 318 317 315 314 314 313 313 312 311 311 309 310 310 310
336 336 336 336 334 334 335 335 333 332 330 330 330 328 326 327 326 325 324 324 323 322 321 320 319 319 318 318 317 316 315 313 312 312 313 313 312 311 309 309 309 309
336 335 335 334 334 334 335 334 333 331 330 329 329 327 326 325 324 323 323 322 322 321 320 319 319 318 317 317 316 315 314 313 312 312 313 312 312 311 309 310 310 310
335 335 334 333 333 334 334 333 333 330 329 329 328 326 325 324 322 321 321 320 321 321 320 319 318 317 317 316 315 314 314 313 312 312 312 311 311 310 310 311 310 310
334 333 333 332 333 333 333 332 332 330 329 328 327 326 324 322 321 320 320 321 321 320 319 318 317 316 316 316 314 313 313 312 312 312 311 311 310 310 310 310 310 310
333 334 333 333 333 333 331 332 332 330 329 328 327 325 324 322 320 320 319 319 319 319 319 318 316 315 315 315 314 313 312 312 311 311 310 309 310 309 310 310 310 310
334 334 333 332 332 331 330 330 331 329 328 327 326 325 324 322 320 319 318 317 317 317 316 316 315 315 315 314 314 313 313 311 311 310 310 309 309 309 309 309 309 310
333 332 332 331 330 329 329 329 328 327 327 326 325 325 323 321 318 318 318 317 316 316 315 315 315 315 312 308 309 313 313 312 312 312 311 310 309 309 309 309 309 310
332 331 330 329 329 329 328 327 326 326 325 325 325 324 322 319 315 314 315 315 316 315 315 314 314 313 303 299 299 303 312 313 312 311 311 310 310 309 308 308 309 308
331 331 329 329 329 328 327 326 325 325 324 325 324 322 320 317 314 314 314 315 315 316 315 315 315 306 297 297 297 298 305 313 313 311 311 310 310 309 309 309 308 309
331 330 329 328 328 328 327 326 325 324 325 326 324 321 318 315 315 315 314 315 315 315 315 315 315 299 296 296 296 297 299 307 312 312 311 310 310 310 309 309 309 309
331 330 329 329 329 328 327 325 324 324 325 325 323 319 316 317 318 316 314 314 315 316 316 315 315 300 296 296 296 295 296 302 312 312 311 310 310 310 310 310 309 309
330 330 329 329 328 326 326 325 324 324 323 322 320 318 318 318 317 316 314 314 314 316 315 314 315 298 295 295 295 295 295 300 313 312 311 311 311 311 310 310 310 311
330 329 329 329 327 325 324 323 323 322 321 320 320 319 319 319 319 317 314 313 314 313 313 312 313 295 295 295 294 294 295 309 312 311 311 310 310 310 310 311 311 311
330 329 328 327 326 324 323 323 323 321 321 321 319 318 317 318 319 317 315 315 313 312 313 313 313 298 294 294 294 293 299 311 311 310 310 310 309 310 309 310 310 309
331 329 328 326 326 324 323 324 324 323 322 321 319 318 318 319 319 317 316 315 313 313 314 314 313 302 294 294 294 294 303 311 310 310 309 309 309 309 309 309 308 307
330 329 328 326 325 324 324 324 323 322 321 320 321 321 320 320 318 315 313 314 314 314 310 312 313 303 294 294 294 294 304 312 310 310 309 308 308 308 309 308 308 306
330 328 328 327 325 324 324 325 324 322 320 320 321 321 320 319 317 315 313 313 314 313 311 313 311 306 299 293 294 294 299 311 311 309 308 308 308 307 306 306 305 306
Wind_Speed
17 14 16 14 12 14 13 13 12 12 12 11 12 10 9 8 9 9 9 8 8 7 6 5 5 7 6 6 5 4 4 3 3 2 4 5 6 7 6 7 6 6
18 13 12 11 10 10 13 13 13 13 12 12 10 7 7 8 9 9 9 8 7 7 6 5 5 7 7 5 5 5 4 4 5 3 4 6 5 6 6 6 6 5
16 15 13 14 13 14 14 13 13 12 12 12 10 7 8 8 9 8 8 8 8 8 8 6 5 6 5 4 5 5 4 4 4 4 4 5 4 5 5 5 4 6
18 18 16 14 12 15 15 13 12 11 11 11 10 8 8 8 8 9 8 8 7 8 8 7 7 7 6 6 5 3 3 3 2 4 4 3 4 4 4 4 4 4
20 19 17 16 15 12 15 14 15 13 13 11 9 9 8 9 8 9 8 8 7 8 7 8 8 7 7 6 6 5 5 5 4 5 5 5 4 4 4 4 5 5
19 19 18 17 16 16 16 15 16 15 14 12 10 9 9 10 10 10 10 9 8 7 8 7 7 7 7 6 6 5 5 5 5 6 5 5 5 4 3 5 6 6
20 18 18 17 17 16 16 15 14 11 11 10 10 10 10 10 10 11 10 9 9 8 9 8 8 8 6 6 5 5 5 5 6 6 6 5 5 5 4 5 6 6
20 18 18 17 16 16 16 15 11 10 10 10 11 10 11 11 11 10 9 10 9 9 8 8 8 8 7 6 6 6 5 4 5 7 6 6 6 6 6 4 5 6
19 18 18 18 17 16 16 13 11 10 11 11 10 10 10 10 11 10 10 10 8 8 8 8 8 8 7 7 6 7 7 6 5 6 7 7 7 6 7 5 6 6
19 18 18 18 17 15 17 15 11 10 11 11 11 9 10 9 9 10 9 9 9 8 8 8 8 7 7 7 7 7 7 7 7 6 6 7 7 7 7 6 7 7
19 19 18 18 17 15 17 16 12 11 10 12 10 10 10 9 9 9 9 9 8 9 9 8 8 8 8 7 6 6 7 6 7 6 6 6 5 6 6 7 7 7
19 18 19 20 18 16 17 16 13 12 12 10 11 12 11 10 11 9 10 10 9 9 9 8 8 8 8 8 7 7 6 5 5 5 6 5 5 5 6 6 7 7
20 20 19 18 17 16 15 15 14 12 13 12 11 12 12 11 10 10 9 10 10 9 9 9 9 8 8 8 8 8 7 7 6 6 6 5 5 6 6 6 6 6
20 18 18 17 16 16 15 15 14 12 12 11 12 12 12 12 12 12 9 9 9 9 9 8 8 8 8 8 8 8 8 8 7 7 7 6 5 5 5 6 6 6
17 16 16 17 17 16 16 16 15 12 12 11 11 11 9 11 11 11 11 10 8 8 9 8 8 8 7 8 9 9 8 8 8 8 7 7 6 6 6 6 6 5
18 16 17 13 13 16 17 17 13 12 11 12 12 12 10 10 10 10 11 11 10 9 8 7 7 6 8 13 11 9 9 7 7 7 8 7 7 7 6 6 6 5
17 15 13 13 18 17 16 14 12 10 11 11 12 11 11 10 8 9 9 9 10 10 10 8 7 6 13 14 13 12 10 8 8 8 7 8 7 8 7 7 6 6
15 15 16 18 17 17 18 15 11 12 11 12 11 11 10 10 9 10 9 9 8 10 10 8 7 10 16 14 14 13 10 9 8 8 7 7 8 8 7 7 7 7
17 18 17 15 16 15 15 13 15 16 15 16 14 12 11 12 12 11 10 9 10 11 10 9 8 13 16 16 14 14 13 10 8 8 8 8 8 9 8 8 8 7
17 18 17 17 16 18 15 13 15 16 16 15 12 11 11 12 12 12 10 10 11 11 10 9 9 14 17 16 15 15 14 10 8 9 8 9 9 9 8 9 9 9
17 18 18 18 14 14 14 18 15 16 16 13 10 12 13 13 13 12 10 10 10 9 9 9 8 16 16 16 15 15 14 10 7 7 7 8 8 9 9 9 9 8
17 17 17 14 12 15 14 17 15 14 13 12 11 11 10 10 11 11 11 11 10 10 8 9 8 17 16 17 16 15 15 8 8 8 8 8 8 8 7 7 8 8
18 17 15 13 14 16 15 18 15 13 11 11 11 10 10 10 11 11 11 11 12 11 11 10 9 15 16 17 16 16 13 8 8 8 7 8 7 7 7 7 6 8
13 13 16 16 17 16 16 17 15 12 13 10 11 11 11 11 10 10 10 11 13 13 12 11 9 14 18 17 17 18 14 10 9 8 8 7 7 7 7 7 7 8
15 15 13 15 18 12 15 18 16 12 11 11 10 11 12 11 11 10 9 9 10 10 14 12 9 13 18 18 19 19 14 9 9 8 8 7 7 7 6 6 6 8
14 15 15 14 13 13 10 15 12 9 11 12 10 10 10 10 11 9 11 10 10 8 9 9 9 9 14 18 19 19 17 10 9 8 9 9 7 7 7 5 5 6
Wind_Direction
191 185 189 191 186 193 184 182 181 182 187 190 195 189 178 174 166 181 184 180 176 167 155 176 136 137 157 169 162 165 164 152 149 160 180 195 205 195 195 201 200 209
192 178 182 180 180 176 187 184 183 184 189 192 194 169 164 165 173 178 178 179 167 152 148 161 156 157 156 165 165 164 157 163 165 151 174 192 204 195 203 196 199 201
184 185 178 185 187 182 185 186 186 189 190 194 189 161 164 172 172 179 173 169 165 150 155 168 159 145 153 156 158 169 163 155 152 157 171 189 194 202 195 183 197 191
187 190 189 186 177 182 188 183 187 187 185 185 184 171 166 171 170 171 169 168 162 156 157 161 151 153 162 154 151 137 132 149 165 163 168 167 186 197 181 184 181 183
186 190 192 192 190 171 187 189 188 187 186 186 166 163 163 166 170 170 170 171 166 158 153 152 156 156 160 161 163 155 161 171 164 177 178 172 167 173 168 177 176 172
188 192 193 193 190 186 191 192 194 191 188 183 167 168 171 169 173 173 173 170 169 158 153 150 154 158 167 161 164 163 162 169 169 177 177 171 160 164 160 179 168 163
187 189 190 190 187 186 190 190 184 167 171 164 162 172 167 172 175 175 173 171 166 163 160 158 159 160 162 161 168 162 164 167 164 176 174 164 159 157 168 176 172 159
185 185 186 186 185 183 188 189 171 167 161 159 170 173 173 174 176 172 173 169 167 165 161 161 163 160 161 166 167 162 159 157 172 175 171 161 163 166 169 176 157 149
182 184 184 185 182 184 187 178 164 164 162 165 172 168 174 175 175 172 170 169 165 163 161 161 164 159 161 168 168 171 172 169 175 177 169 164 173 169 166 160 160 154
182 182 182 183 183 185 186 182 163 163 163 169 172 166 170 177 173 170 166 166 165 164 165 160 162 160 161 171 172 174 176 172 174 177 175 178 178 167 161 165 166 159
182 180 182 183 184 183 184 181 165 161 164 170 166 166 172 168 168 168 165 169 169 172 167 165 166 165 165 167 167 172 173 167 173 175 179 182 173 164 162 173 171 170
183 180 181 180 181 183 183 181 171 161 163 170 169 169 169 173 170 171 174 176 176 173 167 164 164 165 170 170 168 164 160 160 167 174 179 177 167 166 171 173 175 169
183 185 180 176 179 179 178 178 175 163 166 168 171 172 170 172 173 170 172 173 174 167 165 163 163 165 166 164 162 164 167 165 168 172 170 166 168 168 169 173 175 167
186 184 176 173 175 176 176 176 176 163 168 167 170 175 175 175 172 172 169 170 167 166 163 159 158 162 163 164 166 167 166 167 170 168 169 161 159 163 166 173 175 172
182 180 177 168 166 169 172 175 178 165 166 167 172 175 174 174 169 167 162 167 162 162 160 159 161 165 165 164 166 168 167 169 171 171 166 160 163 166 170 173 173 170
176 171 172 157 159 169 171 174 170 160 165 169 175 176 171 164 161 162 163 165 164 164 162 160 165 169 163 167 169 168 169 168 165 166 168 166 166 164 165 171 172 169
169 165 163 156 170 169 171 167 159 155 164 170 173 174 170 159 150 156 161 163 167 166 167 170 170 167 158 170 171 165 165 164 166 166 170 172 170 167 169 171 170 175
163 165 165 169 166 167 168 168 155 163 165 169 170 168 164 160 162 164 162 162 164 169 168 169 170 152 164 171 173 170 169 165 166 165 170 174 175 173 171 172 174 178
166 168 167 164 166 162 163 162 170 177 180 185 182 167 156 165 174 166 164 164 166 169 170 167 168 157 171 172 174 174 170 166 168 168 171 174 173 177 175 177 178 181
168 171 167 165 162 164 163 157 164 177 180 182 170 156 163 173 174 168 160 167 173 172 167 168 170 167 174 174 172 173 170 175 167 168 174 174 174 175 177 181 183 185
168 170 170 168 159 158 163 172 170 175 177 175 160 165 171 174 171 170 169 168 168 166 162 165 174 166 175 172 171 171 170 177 165 167 172 174 176 179 183 182 181 184
168 169 166 161 154 164 164 168 170 169 170 168 164 170 177 169 170 167 163 169 169 164 161 170 166 167 172 171 168 169 165 178 170 172 175 176 176 179 180 180 178 177
170 167 161 155 160 166 168 172 170 165 162 164 168 168 166 173 169 166 165 170 168 170 173 175 167 172 171 168 166 164 168 180 171 178 178 176 175 172 177 178 180 182
161 160 166 164 166 171 172 172 172 162 167 165 165 163 172 173 167 165 168 172 171 173 177 170 168 169 171 167 164 169 177 175 175 177 174 174 168 172 181 182 186 180
168 167 164 163 168 163 172 174 169 161 159 163 167 168 169 170 167 161 163 174 178 175 172 167 161 164 171 167 168 174 180 176 174 173 168 175 177 174 178 183 175 185
167 170 166 160 155 160 153 169 165 146 158 168 167 169 167 168 165 161 167 176 177 168 166 174 155 154 172 170 173 177 183 176 173 172 179 176 180 176 172 180 178 187